Torna al catalogo

STARLINK-6124

AttivoComunicazioniVLEO
NORAD 56126·PAYLOAD·🇺🇸 United States

Lanciato Mar 29, 2023 da Cape Canaveral Space Force Station

Loading…

Prossimi Passaggi (prossime 24 ore)

TLE

AggiornatoSource: CelesTrak SupGP

Epoca: Sep 14, 2026, 13:22 UTC

1 56126C 23046AK  26257.55743056  .00009050  00000+0  32782-3 0  2577
2 56126  43.0001 160.3576 0001376 260.4387 152.6445 15.27570608    14

Traccia STARLINK-6124 in tempo reale con AllMySat

Download on the App Store